Year,Month,Day,Hour,Minute,Value (Times are PST for temperature in C)
2020,09,30,00,00,15.40
2020,09,30,00,01,15.30
2020,09,30,00,02,15.30
2020,09,30,00,03,15.30
2020,09,30,00,04,15.30
2020,09,30,00,05,15.40
2020,09,30,00,06,15.40
2020,09,30,00,07,15.40
2020,09,30,00,08,15.40
2020,09,30,00,09,15.40
2020,09,30,00,10,15.40
2020,09,30,00,11,15.40
2020,09,30,00,12,15.40
2020,09,30,00,13,15.40
2020,09,30,00,14,15.40
2020,09,30,00,15,15.40
2020,09,30,00,16,15.40
2020,09,30,00,17,15.40
2020,09,30,00,18,15.40
2020,09,30,00,19,15.40
2020,09,30,00,20,15.40
2020,09,30,00,21,15.40
2020,09,30,00,22,15.40
2020,09,30,00,23,15.30
2020,09,30,00,24,15.30
2020,09,30,00,25,15.30
2020,09,30,00,26,15.20
2020,09,30,00,27,15.20
2020,09,30,00,28,15.20
2020,09,30,00,29,15.20
2020,09,30,00,30,15.20
2020,09,30,00,31,15.20
2020,09,30,00,32,15.20
2020,09,30,00,33,15.10
2020,09,30,00,34,15.10
2020,09,30,00,35,15.10
2020,09,30,00,36,15.10
2020,09,30,00,37,15.10
2020,09,30,00,38,15.10
2020,09,30,00,39,15.10
2020,09,30,00,40,15.20
2020,09,30,00,41,15.20
2020,09,30,00,42,15.20
2020,09,30,00,43,15.20
2020,09,30,00,44,15.10
2020,09,30,00,45,15.10
2020,09,30,00,46,15.10
2020,09,30,00,47,15.10
2020,09,30,00,48,15.10
2020,09,30,00,49,15.00
2020,09,30,00,50,15.00
2020,09,30,00,51,15.00
2020,09,30,00,52,15.00
2020,09,30,00,53,15.00
2020,09,30,00,54,15.00
2020,09,30,00,55,15.00
2020,09,30,00,56,15.00
2020,09,30,00,57,15.00
2020,09,30,00,58,15.00
2020,09,30,00,59,15.00
2020,09,30,01,00,15.10
2020,09,30,01,01,15.00
2020,09,30,01,02,15.00
2020,09,30,01,03,15.00
2020,09,30,01,04,15.00
2020,09,30,01,05,15.10
2020,09,30,01,06,15.10
2020,09,30,01,07,15.10
2020,09,30,01,08,15.10
2020,09,30,01,09,15.10
2020,09,30,01,10,15.10
2020,09,30,01,11,15.10
2020,09,30,01,12,15.10
2020,09,30,01,13,15.10
2020,09,30,01,14,15.10
2020,09,30,01,15,15.10
2020,09,30,01,16,15.10
2020,09,30,01,17,15.10
2020,09,30,01,18,15.10
2020,09,30,01,19,15.10
2020,09,30,01,20,15.10
2020,09,30,01,21,15.10
2020,09,30,01,22,15.00
2020,09,30,01,23,15.00
2020,09,30,01,24,14.90
2020,09,30,01,25,14.90
2020,09,30,01,26,14.80
2020,09,30,01,27,14.80
2020,09,30,01,28,14.80
2020,09,30,01,29,14.80
2020,09,30,01,30,14.80
2020,09,30,01,31,14.80
2020,09,30,01,32,14.80
2020,09,30,01,33,14.90
2020,09,30,01,34,14.90
2020,09,30,01,35,14.90
2020,09,30,01,36,14.90
2020,09,30,01,37,14.90
2020,09,30,01,38,14.90
2020,09,30,01,39,14.80
2020,09,30,01,40,14.80
2020,09,30,01,41,14.80
2020,09,30,01,42,14.80
2020,09,30,01,43,14.80
2020,09,30,01,44,14.80
2020,09,30,01,45,14.80
2020,09,30,01,46,14.80
2020,09,30,01,47,14.90
2020,09,30,01,48,14.90
2020,09,30,01,49,14.90
2020,09,30,01,50,14.90
2020,09,30,01,51,14.90
2020,09,30,01,52,14.90
2020,09,30,01,53,14.90
2020,09,30,01,54,14.90
2020,09,30,01,55,14.90
2020,09,30,01,56,14.90
2020,09,30,01,57,15.00
2020,09,30,01,58,15.00
2020,09,30,01,59,15.10
2020,09,30,02,00,15.10
2020,09,30,02,01,15.10
2020,09,30,02,02,15.10
2020,09,30,02,03,15.20
2020,09,30,02,04,15.20
2020,09,30,02,05,15.20
2020,09,30,02,06,15.20
2020,09,30,02,07,15.20
2020,09,30,02,08,15.30
2020,09,30,02,09,15.30
2020,09,30,02,10,15.30
2020,09,30,02,11,15.30
2020,09,30,02,12,15.30
2020,09,30,02,13,15.30
2020,09,30,02,14,15.30
2020,09,30,02,15,15.30
2020,09,30,02,16,15.30
2020,09,30,02,17,15.20
2020,09,30,02,18,15.20
2020,09,30,02,19,15.20
2020,09,30,02,20,15.20
2020,09,30,02,21,15.20
2020,09,30,02,22,15.20
2020,09,30,02,23,15.20
2020,09,30,02,24,15.20
2020,09,30,02,25,15.10
2020,09,30,02,26,15.10
2020,09,30,02,27,15.10
2020,09,30,02,28,15.00
2020,09,30,02,29,15.00
2020,09,30,02,30,15.00
2020,09,30,02,31,14.90
2020,09,30,02,32,14.90
2020,09,30,02,33,14.90
2020,09,30,02,34,14.90
2020,09,30,02,35,14.90
2020,09,30,02,36,14.90
2020,09,30,02,37,14.90
2020,09,30,02,38,14.90
2020,09,30,02,39,14.80
2020,09,30,02,40,14.80
2020,09,30,02,41,14.80
2020,09,30,02,42,14.80
2020,09,30,02,43,14.80
2020,09,30,02,44,14.70
2020,09,30,02,45,14.70
2020,09,30,02,46,14.70
2020,09,30,02,47,14.70
2020,09,30,02,48,14.70
2020,09,30,02,49,14.60
2020,09,30,02,50,14.60
2020,09,30,02,51,14.60
2020,09,30,02,52,14.60
2020,09,30,02,53,14.50
2020,09,30,02,54,14.50
2020,09,30,02,55,14.50
2020,09,30,02,56,14.50
2020,09,30,02,57,14.50
2020,09,30,02,58,14.50
2020,09,30,02,59,14.50
2020,09,30,03,00,14.50
2020,09,30,03,01,14.50
2020,09,30,03,02,14.50
2020,09,30,03,03,14.60
2020,09,30,03,04,14.60
2020,09,30,03,05,14.50
2020,09,30,03,06,14.50
2020,09,30,03,07,14.50
2020,09,30,03,08,14.50
2020,09,30,03,09,14.40
2020,09,30,03,10,14.40
2020,09,30,03,11,14.30
2020,09,30,03,12,14.30
2020,09,30,03,13,14.30
2020,09,30,03,14,14.30
2020,09,30,03,15,14.30
2020,09,30,03,16,14.30
2020,09,30,03,17,14.30
2020,09,30,03,18,14.30
2020,09,30,03,19,14.30
2020,09,30,03,20,14.20
2020,09,30,03,21,14.20
2020,09,30,03,22,14.20
2020,09,30,03,23,14.20
2020,09,30,03,24,14.20
2020,09,30,03,25,14.20
2020,09,30,03,26,14.20
2020,09,30,03,27,14.10
2020,09,30,03,28,14.10
2020,09,30,03,29,14.10
2020,09,30,03,30,14.10
2020,09,30,03,31,14.00
2020,09,30,03,32,14.00
2020,09,30,03,33,14.00
2020,09,30,03,34,14.00
2020,09,30,03,35,14.00
2020,09,30,03,36,14.00
2020,09,30,03,37,14.00
2020,09,30,03,38,14.00
2020,09,30,03,39,14.00
2020,09,30,03,40,14.00
2020,09,30,03,41,14.00
2020,09,30,03,42,14.00
2020,09,30,03,43,13.90
2020,09,30,03,44,13.90
2020,09,30,03,45,13.90
2020,09,30,03,46,13.90
2020,09,30,03,47,13.90
2020,09,30,03,48,13.90
2020,09,30,03,49,13.80
2020,09,30,03,50,13.80
2020,09,30,03,51,13.80
2020,09,30,03,52,13.80
2020,09,30,03,53,13.80
2020,09,30,03,54,13.80
2020,09,30,03,55,13.80
2020,09,30,03,56,13.80
2020,09,30,03,57,13.80
2020,09,30,03,58,13.80
2020,09,30,03,59,13.80
2020,09,30,04,00,13.80
2020,09,30,04,01,13.80
2020,09,30,04,02,13.80
2020,09,30,04,03,13.80
2020,09,30,04,04,13.80
2020,09,30,04,05,13.80
2020,09,30,04,06,13.80
2020,09,30,04,07,13.80
2020,09,30,04,08,13.80
2020,09,30,04,09,13.90
2020,09,30,04,10,13.90
2020,09,30,04,11,13.90
2020,09,30,04,12,14.00
2020,09,30,04,13,14.00
2020,09,30,04,14,13.90
2020,09,30,04,15,13.90
2020,09,30,04,16,13.90
2020,09,30,04,17,13.90
2020,09,30,04,18,13.90
2020,09,30,04,19,13.90
2020,09,30,04,20,13.90
2020,09,30,04,21,13.80
2020,09,30,04,22,13.70
2020,09,30,04,23,13.70
2020,09,30,04,24,13.70
2020,09,30,04,25,13.70
2020,09,30,04,26,13.70
2020,09,30,04,27,13.60
2020,09,30,04,28,13.60
2020,09,30,04,29,13.60
2020,09,30,04,30,13.60
2020,09,30,04,31,13.60
2020,09,30,04,32,13.60
2020,09,30,04,33,13.60
2020,09,30,04,34,13.60
2020,09,30,04,35,13.60
2020,09,30,04,36,13.60
2020,09,30,04,37,13.60
2020,09,30,04,38,13.60
2020,09,30,04,39,13.60
2020,09,30,04,40,13.60
2020,09,30,04,41,13.60
2020,09,30,04,42,13.60
2020,09,30,04,43,13.60
2020,09,30,04,44,13.60
2020,09,30,04,45,13.60
2020,09,30,04,46,13.60
2020,09,30,04,47,13.60
2020,09,30,04,48,13.60
2020,09,30,04,49,13.60
2020,09,30,04,50,13.70
2020,09,30,04,51,13.70
2020,09,30,04,52,13.60
2020,09,30,04,53,13.60
2020,09,30,04,54,13.60
2020,09,30,04,55,13.60
2020,09,30,04,56,13.60
2020,09,30,04,57,13.60
2020,09,30,04,58,13.60
2020,09,30,04,59,13.60
2020,09,30,05,00,13.60
2020,09,30,05,01,13.60
2020,09,30,05,02,13.60
2020,09,30,05,03,13.60
2020,09,30,05,04,13.60
2020,09,30,05,05,13.60
2020,09,30,05,06,13.60
2020,09,30,05,07,13.60
2020,09,30,05,08,13.60
2020,09,30,05,09,13.60
2020,09,30,05,10,13.60
2020,09,30,05,11,13.50
2020,09,30,05,12,13.50
2020,09,30,05,13,13.50
2020,09,30,05,14,13.50
2020,09,30,05,15,13.50
2020,09,30,05,16,13.50
2020,09,30,05,17,13.40
2020,09,30,05,18,13.40
2020,09,30,05,19,13.40
2020,09,30,05,20,13.40
2020,09,30,05,21,13.40
2020,09,30,05,22,13.40
2020,09,30,05,23,13.40
2020,09,30,05,24,13.40
2020,09,30,05,25,13.40
2020,09,30,05,26,13.40
2020,09,30,05,27,13.40
2020,09,30,05,28,13.40
2020,09,30,05,29,13.30
2020,09,30,05,30,13.30
2020,09,30,05,31,13.30
2020,09,30,05,32,13.30
2020,09,30,05,33,13.30
2020,09,30,05,34,13.30
2020,09,30,05,35,13.30
2020,09,30,05,36,13.20
2020,09,30,05,37,13.20
2020,09,30,05,38,13.20
2020,09,30,05,39,13.20
2020,09,30,05,40,13.20
2020,09,30,05,41,13.20
2020,09,30,05,42,13.20
2020,09,30,05,43,13.20
2020,09,30,05,44,13.20
2020,09,30,05,45,13.20
2020,09,30,05,46,13.20
2020,09,30,05,47,13.30
2020,09,30,05,48,13.30
2020,09,30,05,49,13.30
2020,09,30,05,50,13.30
2020,09,30,05,51,13.30
2020,09,30,05,52,13.30
2020,09,30,05,53,13.40
2020,09,30,05,54,13.40
2020,09,30,05,55,13.40
2020,09,30,05,56,13.50
2020,09,30,05,57,13.60
2020,09,30,05,58,13.60
2020,09,30,05,59,13.60
2020,09,30,06,00,13.70
2020,09,30,06,01,13.70
2020,09,30,06,02,13.60
2020,09,30,06,03,13.60
2020,09,30,06,04,13.50
2020,09,30,06,05,13.50
2020,09,30,06,06,13.50
2020,09,30,06,07,13.40
2020,09,30,06,08,13.40
2020,09,30,06,09,13.40
2020,09,30,06,10,13.40
2020,09,30,06,11,13.40
2020,09,30,06,12,13.40
2020,09,30,06,13,13.40
2020,09,30,06,14,13.40
2020,09,30,06,15,13.40
2020,09,30,06,16,13.40
2020,09,30,06,17,13.40
2020,09,30,06,18,13.40
2020,09,30,06,19,13.40
2020,09,30,06,20,13.40
2020,09,30,06,21,13.40
2020,09,30,06,22,13.40
2020,09,30,06,23,13.30
2020,09,30,06,24,13.30
2020,09,30,06,25,13.30
2020,09,30,06,26,13.30
2020,09,30,06,27,13.30
2020,09,30,06,28,13.30
2020,09,30,06,29,13.20
2020,09,30,06,30,13.20
2020,09,30,06,31,13.20
2020,09,30,06,32,13.20
2020,09,30,06,33,13.20
2020,09,30,06,34,13.20
2020,09,30,06,35,13.20
2020,09,30,06,36,13.20
2020,09,30,06,37,13.20
2020,09,30,06,38,13.20
2020,09,30,06,39,13.20
2020,09,30,06,40,13.20
2020,09,30,06,41,13.20
2020,09,30,06,42,13.20
2020,09,30,06,43,13.20
2020,09,30,06,44,13.20
2020,09,30,06,45,13.20
2020,09,30,06,46,13.20
2020,09,30,06,47,13.20
2020,09,30,06,48,13.20
2020,09,30,06,49,13.10
2020,09,30,06,50,13.10
2020,09,30,06,51,13.10
2020,09,30,06,52,13.10
2020,09,30,06,53,13.10
2020,09,30,06,54,13.10
2020,09,30,06,55,13.10
2020,09,30,06,56,13.10
2020,09,30,06,57,13.10
2020,09,30,06,58,13.00
2020,09,30,06,59,13.10
2020,09,30,07,00,13.00
2020,09,30,07,01,13.00
2020,09,30,07,02,13.00
2020,09,30,07,03,13.10
2020,09,30,07,04,13.10
2020,09,30,07,05,13.20
2020,09,30,07,06,13.20
2020,09,30,07,07,13.30
2020,09,30,07,08,13.30
2020,09,30,07,09,13.20
2020,09,30,07,10,13.20
2020,09,30,07,11,13.20
2020,09,30,07,12,13.20
2020,09,30,07,13,13.20
2020,09,30,07,14,13.10
2020,09,30,07,15,13.10
2020,09,30,07,16,13.10
2020,09,30,07,17,13.10
2020,09,30,07,18,13.10
2020,09,30,07,19,13.10
2020,09,30,07,20,13.00
2020,09,30,07,21,13.00
2020,09,30,07,22,13.00
2020,09,30,07,23,13.00
2020,09,30,07,24,13.00
2020,09,30,07,25,13.00
2020,09,30,07,26,13.00
2020,09,30,07,27,13.00
2020,09,30,07,28,13.00
2020,09,30,07,29,13.00
2020,09,30,07,30,13.10
2020,09,30,07,31,13.10
2020,09,30,07,32,13.10
2020,09,30,07,33,13.10
2020,09,30,07,34,13.10
2020,09,30,07,35,13.10
2020,09,30,07,36,13.10
2020,09,30,07,37,13.10
2020,09,30,07,38,13.10
2020,09,30,07,39,13.10
2020,09,30,07,40,13.10
2020,09,30,07,41,13.10
2020,09,30,07,42,13.10
2020,09,30,07,43,13.10
2020,09,30,07,44,13.10
2020,09,30,07,45,13.10
2020,09,30,07,46,13.20
2020,09,30,07,47,13.20
2020,09,30,07,48,13.20
2020,09,30,07,49,13.20
2020,09,30,07,50,13.20
2020,09,30,07,51,13.20
2020,09,30,07,52,13.20
2020,09,30,07,53,13.30
2020,09,30,07,54,13.30
2020,09,30,07,55,13.30
2020,09,30,07,56,13.30
2020,09,30,07,57,13.30
2020,09,30,07,58,13.30
2020,09,30,07,59,13.30
2020,09,30,08,00,13.30
2020,09,30,08,01,13.30
2020,09,30,08,02,13.30
2020,09,30,08,03,13.20
2020,09,30,08,04,13.20
2020,09,30,08,05,13.20
2020,09,30,08,06,13.20
2020,09,30,08,07,13.20
2020,09,30,08,08,13.20
2020,09,30,08,09,13.20
2020,09,30,08,10,13.20
2020,09,30,08,11,13.20
2020,09,30,08,12,13.20
2020,09,30,08,13,13.20
2020,09,30,08,14,13.20
2020,09,30,08,15,13.20
2020,09,30,08,16,13.30
2020,09,30,08,17,13.30
2020,09,30,08,18,13.30
2020,09,30,08,19,13.30
2020,09,30,08,20,13.30
2020,09,30,08,21,13.40
2020,09,30,08,22,13.40
2020,09,30,08,23,13.40
2020,09,30,08,24,13.40
2020,09,30,08,25,13.50
2020,09,30,08,26,13.50
2020,09,30,08,27,13.50
2020,09,30,08,28,13.50
2020,09,30,08,29,13.50
2020,09,30,08,30,13.50
2020,09,30,08,31,13.60
2020,09,30,08,32,13.60
2020,09,30,08,33,13.70
2020,09,30,08,34,13.70
2020,09,30,08,35,13.70
2020,09,30,08,36,13.80
2020,09,30,08,37,13.80
2020,09,30,08,38,13.80
2020,09,30,08,39,13.80
2020,09,30,08,40,13.80
2020,09,30,08,41,13.90
2020,09,30,08,42,13.90
2020,09,30,08,43,13.90
2020,09,30,08,44,13.90
2020,09,30,08,45,13.90
2020,09,30,08,46,13.90
2020,09,30,08,47,13.90
2020,09,30,08,48,13.90
2020,09,30,08,49,13.90
2020,09,30,08,50,13.90
2020,09,30,08,51,13.90
2020,09,30,08,52,13.90
2020,09,30,08,53,14.00
2020,09,30,08,54,14.00
2020,09,30,08,55,14.10
2020,09,30,08,56,14.10
2020,09,30,08,57,14.10
2020,09,30,08,58,14.20
2020,09,30,08,59,14.20
2020,09,30,09,00,14.20
2020,09,30,09,01,14.30
2020,09,30,09,02,14.30
2020,09,30,09,03,14.30
2020,09,30,09,04,14.40
2020,09,30,09,05,14.40
2020,09,30,09,06,14.40
2020,09,30,09,07,14.50
2020,09,30,09,08,14.50
2020,09,30,09,09,14.50
2020,09,30,09,10,14.60
2020,09,30,09,11,14.60
2020,09,30,09,12,14.60
2020,09,30,09,13,14.70
2020,09,30,09,14,14.70
2020,09,30,09,15,14.70
2020,09,30,09,16,14.80
2020,09,30,09,17,14.80
2020,09,30,09,18,14.80
2020,09,30,09,19,14.80
2020,09,30,09,20,14.80
2020,09,30,09,21,14.80
2020,09,30,09,22,14.80
2020,09,30,09,23,14.80
2020,09,30,09,24,14.80
2020,09,30,09,25,14.80
2020,09,30,09,26,14.80
2020,09,30,09,27,14.80
2020,09,30,09,28,14.90
2020,09,30,09,29,14.90
2020,09,30,09,30,14.90
2020,09,30,09,31,15.00
2020,09,30,09,32,15.00
2020,09,30,09,33,15.00
2020,09,30,09,34,15.10
2020,09,30,09,35,15.20
2020,09,30,09,36,15.20
2020,09,30,09,37,15.30
2020,09,30,09,38,15.40
2020,09,30,09,39,15.40
2020,09,30,09,40,15.40
2020,09,30,09,41,15.40
2020,09,30,09,42,15.40
2020,09,30,09,43,15.40
2020,09,30,09,44,15.50
2020,09,30,09,45,15.50
2020,09,30,09,46,15.60
2020,09,30,09,47,15.60
2020,09,30,09,48,15.60
2020,09,30,09,49,15.60
2020,09,30,09,50,15.60
2020,09,30,09,51,15.60
2020,09,30,09,52,15.60
2020,09,30,09,53,15.60
2020,09,30,09,54,15.60
2020,09,30,09,55,15.60
2020,09,30,09,56,15.60
2020,09,30,09,57,15.70
2020,09,30,09,58,15.70
2020,09,30,09,59,15.70
2020,09,30,10,00,15.70
2020,09,30,10,01,15.80
2020,09,30,10,02,15.80
2020,09,30,10,03,15.80
2020,09,30,10,04,15.80
2020,09,30,10,05,15.80
2020,09,30,10,06,15.80
2020,09,30,10,07,15.80
2020,09,30,10,08,15.80
2020,09,30,10,09,15.80
2020,09,30,10,10,15.90
2020,09,30,10,11,15.80
2020,09,30,10,12,15.80
2020,09,30,10,13,15.80
2020,09,30,10,14,15.80
2020,09,30,10,15,15.80
2020,09,30,10,16,15.80
2020,09,30,10,17,15.80
2020,09,30,10,18,15.80
2020,09,30,10,19,15.80
2020,09,30,10,20,15.80
2020,09,30,10,21,15.80
2020,09,30,10,22,15.80
2020,09,30,10,23,15.80
2020,09,30,10,24,15.90
2020,09,30,10,25,15.90
2020,09,30,10,26,16.00
2020,09,30,10,27,16.00
2020,09,30,10,28,16.10
2020,09,30,10,29,16.10
2020,09,30,10,30,16.20
2020,09,30,10,31,16.20
2020,09,30,10,32,16.20
2020,09,30,10,33,16.20
2020,09,30,10,34,16.20
2020,09,30,10,35,16.20
2020,09,30,10,36,16.20
2020,09,30,10,37,16.20
2020,09,30,10,38,16.20
2020,09,30,10,39,16.20
2020,09,30,10,40,16.20
2020,09,30,10,41,16.20
2020,09,30,10,42,16.20
2020,09,30,10,43,16.20
2020,09,30,10,44,16.20
2020,09,30,10,45,16.20
2020,09,30,10,46,16.20
2020,09,30,10,47,16.30
2020,09,30,10,48,16.30
2020,09,30,10,49,16.30
2020,09,30,10,50,16.30
2020,09,30,10,51,16.30
2020,09,30,10,52,16.40
2020,09,30,10,53,16.40
2020,09,30,10,54,16.50
2020,09,30,10,55,16.50
2020,09,30,10,56,16.60
2020,09,30,10,57,16.60
2020,09,30,10,58,16.70
2020,09,30,10,59,16.70
2020,09,30,11,00,16.70
2020,09,30,11,01,16.70
2020,09,30,11,02,16.70
2020,09,30,11,03,16.70
2020,09,30,11,04,16.70
2020,09,30,11,05,16.70
2020,09,30,11,06,16.70
2020,09,30,11,07,16.70
2020,09,30,11,08,16.70
2020,09,30,11,09,16.70
2020,09,30,11,10,16.80
2020,09,30,11,11,16.70
2020,09,30,11,12,16.70
2020,09,30,11,13,16.60
2020,09,30,11,14,16.50
2020,09,30,11,15,16.50
2020,09,30,11,16,16.50
2020,09,30,11,17,16.40
2020,09,30,11,18,16.40
2020,09,30,11,19,16.30
2020,09,30,11,20,16.30
2020,09,30,11,21,16.40
2020,09,30,11,22,16.40
2020,09,30,11,23,16.40
2020,09,30,11,24,16.50
2020,09,30,11,25,16.50
2020,09,30,11,26,16.60
2020,09,30,11,27,16.60
2020,09,30,11,28,16.60
2020,09,30,11,29,16.60
2020,09,30,11,30,16.60
2020,09,30,11,31,16.60
2020,09,30,11,32,16.70
2020,09,30,11,33,16.70
2020,09,30,11,34,16.70
2020,09,30,11,35,16.70
2020,09,30,11,36,16.70
2020,09,30,11,37,16.70
2020,09,30,11,38,16.70
2020,09,30,11,39,16.70
2020,09,30,11,40,16.70
2020,09,30,11,41,16.70
2020,09,30,11,42,16.60
2020,09,30,11,43,16.60
2020,09,30,11,44,16.60
2020,09,30,11,45,16.60
2020,09,30,11,46,16.60
2020,09,30,11,47,16.60
2020,09,30,11,48,16.60
2020,09,30,11,49,16.60
2020,09,30,11,50,16.60
2020,09,30,11,51,16.70
2020,09,30,11,52,16.70
2020,09,30,11,53,16.70
2020,09,30,11,54,16.80
2020,09,30,11,55,16.80
2020,09,30,11,56,16.80
2020,09,30,11,57,16.80
2020,09,30,11,58,16.80
2020,09,30,11,59,16.80
2020,09,30,12,00,16.80
2020,09,30,12,01,16.80
2020,09,30,12,02,16.80
2020,09,30,12,03,16.90
2020,09,30,12,04,17.00
2020,09,30,12,05,17.10
2020,09,30,12,06,17.10
2020,09,30,12,07,17.20
2020,09,30,12,08,17.20
2020,09,30,12,09,17.30
2020,09,30,12,10,17.40
2020,09,30,12,11,17.50
2020,09,30,12,12,17.70
2020,09,30,12,13,17.80
2020,09,30,12,14,17.80
2020,09,30,12,15,17.80
2020,09,30,12,16,17.80
2020,09,30,12,17,17.70
2020,09,30,12,18,17.60
2020,09,30,12,19,17.60
2020,09,30,12,20,17.50
2020,09,30,12,21,17.50
2020,09,30,12,22,17.50
2020,09,30,12,23,17.50
2020,09,30,12,24,17.50
2020,09,30,12,25,17.40
2020,09,30,12,26,17.30
2020,09,30,12,27,17.30
2020,09,30,12,28,17.20
2020,09,30,12,29,17.20
2020,09,30,12,30,17.30
2020,09,30,12,31,17.30
2020,09,30,12,32,17.30
2020,09,30,12,33,17.40
2020,09,30,12,34,17.40
2020,09,30,12,35,17.40
2020,09,30,12,36,17.40
2020,09,30,12,37,17.50
2020,09,30,12,38,17.50
2020,09,30,12,39,17.60
2020,09,30,12,40,17.70
2020,09,30,12,41,17.70
2020,09,30,12,42,17.80
2020,09,30,12,43,17.90
2020,09,30,12,44,17.90
2020,09,30,12,45,18.00
2020,09,30,12,46,18.00
2020,09,30,12,47,18.00
2020,09,30,12,48,17.90
2020,09,30,12,49,17.80
2020,09,30,12,50,17.60
2020,09,30,12,51,17.50
2020,09,30,12,52,17.40
2020,09,30,12,53,17.40
2020,09,30,12,54,17.30
2020,09,30,12,55,17.30
2020,09,30,12,56,17.30
2020,09,30,12,57,17.30
2020,09,30,12,58,17.30
2020,09,30,12,59,17.30
2020,09,30,13,00,17.40
2020,09,30,13,01,17.40
2020,09,30,13,02,17.40
2020,09,30,13,03,17.50
2020,09,30,13,04,17.50
2020,09,30,13,05,17.50
2020,09,30,13,06,17.60
2020,09,30,13,07,17.60
2020,09,30,13,08,17.60
2020,09,30,13,09,17.70
2020,09,30,13,10,17.80
2020,09,30,13,11,17.90
2020,09,30,13,12,17.90
2020,09,30,13,13,18.00
2020,09,30,13,14,18.00
2020,09,30,13,15,18.10
2020,09,30,13,16,18.10
2020,09,30,13,17,18.20
2020,09,30,13,18,18.20
2020,09,30,13,19,18.20
2020,09,30,13,20,18.20
2020,09,30,13,21,18.20
2020,09,30,13,22,18.20
2020,09,30,13,23,18.20
2020,09,30,13,24,18.20
2020,09,30,13,25,18.30
2020,09,30,13,26,18.30
2020,09,30,13,27,18.40
2020,09,30,13,28,18.40
2020,09,30,13,29,18.40
2020,09,30,13,30,18.30
2020,09,30,13,31,18.30
2020,09,30,13,32,18.20
2020,09,30,13,33,18.10
2020,09,30,13,34,18.10
2020,09,30,13,35,18.10
2020,09,30,13,36,18.20
2020,09,30,13,37,18.20
2020,09,30,13,38,18.10
2020,09,30,13,39,18.10
2020,09,30,13,40,18.20
2020,09,30,13,41,18.20
2020,09,30,13,42,18.20
2020,09,30,13,43,18.20
2020,09,30,13,44,18.20
2020,09,30,13,45,18.20
2020,09,30,13,46,18.20
2020,09,30,13,47,18.20
2020,09,30,13,48,18.20
2020,09,30,13,49,18.20
2020,09,30,13,50,18.20
2020,09,30,13,51,18.20
2020,09,30,13,52,18.20
2020,09,30,13,53,18.20
2020,09,30,13,54,18.20
2020,09,30,13,55,18.20
2020,09,30,13,56,18.10
2020,09,30,13,57,18.10
2020,09,30,13,58,18.10
2020,09,30,13,59,18.00
2020,09,30,14,00,18.10
2020,09,30,14,01,18.10
2020,09,30,14,02,18.10
2020,09,30,14,03,18.10
2020,09,30,14,04,18.10
2020,09,30,14,05,18.10
2020,09,30,14,06,18.10
2020,09,30,14,07,18.10
2020,09,30,14,08,18.20
2020,09,30,14,09,18.20
2020,09,30,14,10,18.10
2020,09,30,14,11,18.10
2020,09,30,14,12,18.10
2020,09,30,14,13,18.10
2020,09,30,14,14,18.10
2020,09,30,14,15,18.10
2020,09,30,14,16,18.10
2020,09,30,14,17,18.00
2020,09,30,14,18,18.00
2020,09,30,14,19,18.00
2020,09,30,14,20,18.00
2020,09,30,14,21,18.00
2020,09,30,14,22,17.90
2020,09,30,14,23,17.90
2020,09,30,14,24,17.90
2020,09,30,14,25,17.90
2020,09,30,14,26,17.90
2020,09,30,14,27,17.90
2020,09,30,14,28,17.90
2020,09,30,14,29,17.90
2020,09,30,14,30,17.80
2020,09,30,14,31,17.90
2020,09,30,14,32,17.90
2020,09,30,14,33,17.90
2020,09,30,14,34,17.90
2020,09,30,14,35,17.90
2020,09,30,14,36,17.90
2020,09,30,14,37,18.00
2020,09,30,14,38,18.10
2020,09,30,14,39,18.10
2020,09,30,14,40,18.10
2020,09,30,14,41,18.00
2020,09,30,14,42,18.00
2020,09,30,14,43,17.90
2020,09,30,14,44,17.80
2020,09,30,14,45,17.70
2020,09,30,14,46,17.60
2020,09,30,14,47,17.50
2020,09,30,14,48,17.30
2020,09,30,14,49,17.20
2020,09,30,14,50,17.20
2020,09,30,14,51,17.20
2020,09,30,14,52,17.20
2020,09,30,14,53,17.20
2020,09,30,14,54,17.20
2020,09,30,14,55,17.20
2020,09,30,14,56,17.20
2020,09,30,14,57,17.20
2020,09,30,14,58,17.20
2020,09,30,14,59,17.20
2020,09,30,15,00,17.30
2020,09,30,15,01,17.30
2020,09,30,15,02,17.20
2020,09,30,15,03,17.20
2020,09,30,15,04,17.20
2020,09,30,15,05,17.20
2020,09,30,15,06,17.10
2020,09,30,15,07,17.10
2020,09,30,15,08,17.10
2020,09,30,15,09,17.10
2020,09,30,15,10,17.10
2020,09,30,15,11,17.20
2020,09,30,15,12,17.20
2020,09,30,15,13,17.20
2020,09,30,15,14,17.30
2020,09,30,15,15,17.30
2020,09,30,15,16,17.40
2020,09,30,15,17,17.50
2020,09,30,15,18,17.50
2020,09,30,15,19,17.60
2020,09,30,15,20,17.70
2020,09,30,15,21,17.70
2020,09,30,15,22,17.80
2020,09,30,15,23,17.70
2020,09,30,15,24,17.80
2020,09,30,15,25,17.80
2020,09,30,15,26,17.80
2020,09,30,15,27,17.80
2020,09,30,15,28,17.80
2020,09,30,15,29,17.80
2020,09,30,15,30,17.80
2020,09,30,15,31,17.90
2020,09,30,15,32,17.90
2020,09,30,15,33,18.00
2020,09,30,15,34,18.10
2020,09,30,15,35,18.10
2020,09,30,15,36,18.20
2020,09,30,15,37,18.20
2020,09,30,15,38,18.20
2020,09,30,15,39,18.30
2020,09,30,15,40,18.30
2020,09,30,15,41,18.30
2020,09,30,15,42,18.30
2020,09,30,15,43,18.20
2020,09,30,15,44,18.20
2020,09,30,15,45,18.10
2020,09,30,15,46,18.10
2020,09,30,15,47,18.00
2020,09,30,15,48,17.90
2020,09,30,15,49,17.90
2020,09,30,15,50,17.80
2020,09,30,15,51,17.80
2020,09,30,15,52,17.80
2020,09,30,15,53,17.80
2020,09,30,15,54,17.80
2020,09,30,15,55,17.70
2020,09,30,15,56,17.70
2020,09,30,15,57,17.70
2020,09,30,15,58,17.70
2020,09,30,15,59,17.70
2020,09,30,16,00,17.80
2020,09,30,16,01,17.70
2020,09,30,16,02,17.80
2020,09,30,16,03,17.80
2020,09,30,16,04,17.80
2020,09,30,16,05,17.80
2020,09,30,16,06,17.80
2020,09,30,16,07,17.80
2020,09,30,16,08,17.80
2020,09,30,16,09,17.90
2020,09,30,16,10,17.90
2020,09,30,16,11,18.00
2020,09,30,16,12,18.00
2020,09,30,16,13,18.00
2020,09,30,16,14,18.00
2020,09,30,16,15,18.00
2020,09,30,16,16,18.00
2020,09,30,16,17,18.00
2020,09,30,16,18,18.10
2020,09,30,16,19,18.10
2020,09,30,16,20,18.10
2020,09,30,16,21,18.10
2020,09,30,16,22,18.10
2020,09,30,16,23,18.10
2020,09,30,16,24,18.10
2020,09,30,16,25,18.10
2020,09,30,16,26,18.00
2020,09,30,16,27,18.10
2020,09,30,16,28,18.10
2020,09,30,16,29,18.10
2020,09,30,16,30,18.20
2020,09,30,16,31,18.10
2020,09,30,16,32,18.10
2020,09,30,16,33,18.10
2020,09,30,16,34,18.10
2020,09,30,16,35,18.10
2020,09,30,16,36,18.10
2020,09,30,16,37,18.20
2020,09,30,16,38,18.20
2020,09,30,16,39,18.20
2020,09,30,16,40,18.20
2020,09,30,16,41,18.20
2020,09,30,16,42,18.10
2020,09,30,16,43,18.10
2020,09,30,16,44,18.20
2020,09,30,16,45,18.20
2020,09,30,16,46,18.20
2020,09,30,16,47,18.20
2020,09,30,16,48,18.20
2020,09,30,16,49,18.20
2020,09,30,16,50,18.30
2020,09,30,16,51,18.30
2020,09,30,16,52,18.30
2020,09,30,16,53,18.30
2020,09,30,16,54,18.30
2020,09,30,16,55,18.40
2020,09,30,16,56,18.40
2020,09,30,16,57,18.40
2020,09,30,16,58,18.40
2020,09,30,16,59,18.30
2020,09,30,17,00,18.30
2020,09,30,17,01,18.30
2020,09,30,17,02,18.20
2020,09,30,17,03,18.20
2020,09,30,17,04,18.20
2020,09,30,17,05,18.10
2020,09,30,17,06,18.10
2020,09,30,17,07,18.10
2020,09,30,17,08,18.00
2020,09,30,17,09,18.00
2020,09,30,17,10,17.90
2020,09,30,17,11,17.90
2020,09,30,17,12,17.90
2020,09,30,17,13,17.90
2020,09,30,17,14,17.90
2020,09,30,17,15,17.90
2020,09,30,17,16,17.80
2020,09,30,17,17,17.80
2020,09,30,17,18,17.80
2020,09,30,17,19,17.80